Find Starlink 1182

NORAD ID: 45077 Int'l Des: 2020-006 Owner: SPXS Country: US Constellation: starlink decayed
LEOCIRCULAR
Vis

Historical Track — 8. Apr. 2022

3D-Globus wird geladen...

Über Starlink 1182

Beschreibung wird geladen...

Höhenverlauf

Loading altitude history...

Zweizeiliger Elementsatz

1 45077U 20006AK 22098.53684403 .13167780 12070-4 32651-2 0 9991
2 45077 53.0359 120.5323 0003763 294.8740 65.1910 16.28392410122631
Epoch: 8. Apr. 2022 • Age: 35258 hours

Aktueller Status

Position data unavailable
Startdatum 29. Jan. 2020
Alter 6.2 years
Verglühungsdatum 8. Apr. 2022
Typ internet

Technische Details

Klassifizierung Payload
Masse 260.00 kg
Trockenmasse 248.00 kg
Gesamtmasse 260.00 kg
Länge 0.20 m
Durchmesser 2.80 m
Spannweite 9.00 m
Form Box + pan
Hersteller SPXS
Bus-Typ Starlink
Phasenstatus Unknown Transfer Status
Besitzer/Staat SPXS/US

Most Searched